This is the latest recevied weather packets stored in our database for station/object W5ITZ. If no packets are shown the sender has not sent any weather packets the latest 10 day(s).
| Time | Temp. | Humidity | Pressure | Rain* | Wind** | Luminosity | Snow |
|---|---|---|---|---|---|---|---|
| 1778109727 | 28.33° C | 83% | 1008.1 hPa | 0 mm | - | 148 W/m² | - |
| 1778109424 | 28.33° C | 83% | 1008.3 hPa | 0 mm | - | 184 W/m² | - |
| 1778109123 | 27.78° C | 83% | 1008.2 hPa | 0 mm | - | 332 W/m² | - |
| 1778108819 | 27.78° C | 83% | 1008.6 hPa | 0 mm | - | 239 W/m² | - |
| 1778108516 | 27.78° C | 84% | 1008.2 hPa | 0 mm | - | 187 W/m² | - |
| 1778108212 | 27.78° C | 84% | 1008.5 hPa | 0 mm | - | 221 W/m² | - |
| 1778107909 | 27.78° C | 85% | 1008.4 hPa | 0 mm | - | 190 W/m² | - |
| 1778107606 | 27.78° C | 84% | 1008.4 hPa | 0 mm | - | 163 W/m² | - |
| 1778107302 | 27.78° C | 84% | 1008.1 hPa | 0 mm | - | 164 W/m² | - |
| 1778106999 | 27.78° C | 84% | 1007.9 hPa | 0 mm | - | 202 W/m² | - |
| 1778106695 | 27.78° C | 84% | 1008.2 hPa | 0 mm | - | 313 W/m² | - |
| 1778106392 | 27.78° C | 84% | 1008.1 hPa | 0 mm | - | 254 W/m² | - |
| 1778106088 | 27.78° C | 84% | 1007.9 hPa | 0 mm | - | 311 W/m² | - |
| 1778105786 | 27.78° C | 84% | 1008 hPa | 0 mm | - | 223 W/m² | - |
| 1778105484 | 27.78° C | 83% | 1007.9 hPa | 0 mm | - | 266 W/m² | - |
| 1778105180 | 27.78° C | 84% | 1008.2 hPa | 0 mm | - | 387 W/m² | - |
| 1778104875 | 27.78° C | 84% | 1008.1 hPa | 0 mm | - | 229 W/m² | - |
| 1778104572 | 27.78° C | 84% | 1008.1 hPa | 0 mm | - | 226 W/m² | - |
| 1778104268 | 27.78° C | 84% | 1008.3 hPa | 0 mm | - | 224 W/m² | - |
| 1778103965 | 27.78° C | 84% | 1008.2 hPa | 0 mm | - | 129 W/m² | - |
| 1778103662 | 27.78° C | 83% | 1008 hPa | 0 mm | - | 130 W/m² | - |
| 1778103360 | 28.33° C | 83% | 1008.4 hPa | 0 mm | - | 133 W/m² | - |
| 1778103057 | 28.89° C | 81% | 1008.2 hPa | 0 mm | - | 162 W/m² | - |
| 1778102754 | 28.89° C | 82% | 1008.2 hPa | 0 mm | - | 204 W/m² | - |
| 1778102449 | 28.89° C | 81% | 1008 hPa | 0 mm | - | 329 W/m² | - |
* Rain latest hour (hover to see other rain measurements)
** Current wind speed in m/s (hover to see current wind gust speed)